Location: Clatteringshaws Loch
(55.0508°N, 4.2860°W)
Time: 10:12:49
(UTC+01:00)

Daily predictions for brighter satellites

Satellite Brightness Start Highest point End
(mag) Time Altitude Azimuth Time Altitude Azimuth Time Altitude Azimuth
Cosmos 1048 Rocket 4.0 20:08:07 10° NNW 20:13:16 66° ENE 20:18:22 10° SE
Cosmos 1844 3.8 20:09:01 10° SSW 20:14:42 60° ESE 20:20:26 10° NE
H-2A R/B 4.1 20:12:31 10° ENE 20:14:44 13° NE 20:16:55 10° NNE
Cosmos 2123 Rocket 4.1 20:09:47 10° N 20:16:12 88° E 20:22:30 10° S
Cosmos 1766 Rocket 4.1 20:12:15 10° N 20:16:30 40° ENE 20:20:45 10° SE
Lacrosse 4 Rocket 1.3 20:14:18 10° SSW 20:18:20 67° SE 20:22:24 10° NE
GP-B 3.9 20:15:44 10° SE 20:19:38 31° ENE 20:23:33 10° NNE
Cosmos 1953 3.2 20:17:36 10° SSE 20:21:06 28° E 20:24:35 10° NNE
Cosmos 2297 Rocket 4.5 20:19:21 10° NW 20:22:54 17° N 20:26:26 10° NNE
Helios 1A 3.1 20:20:07 10° SE 20:24:11 55° ENE 20:28:19 10° N
Resurs 01 Rocket 1.8 20:20:54 10° SSE 20:25:20 83° WSW 20:29:49 10° NNW
Cosmos 1939 Rocket 3.7 20:23:14 10° SE 20:26:59 34° ENE 20:30:46 10° N
ERS-1 Rocket 3.9 20:24:16 10° ESE 20:28:40 31° ENE 20:33:05 10° N
Cosmos 1271 Rocket 4.2 20:29:10 10° SE 20:32:03 19° E 20:34:57 10° NE
Meteor 1-21 Rocket 4.3 20:26:56 10° NNW 20:32:45 72° ENE 20:38:37 10° SSE
SeaSat 1 3.9 20:28:34 10° S 20:33:11 39° WSW 20:37:49 10° NW
Cosmos 1766 3.2 20:29:36 10° S 20:33:29 79° E 20:37:24 10° NNE
Lacrosse 5 rocket 1.6 20:31:44 10° WNW 20:35:44 58° SSW 20:39:30 10° SE
Cosmos-2242 4.1 20:32:18 10° SE 20:35:46 25° E 20:39:15 10° NNE
Cosmos 1937 Rocket 3.5 20:31:40 10° SSW 20:36:57 87° ESE 20:42:19 10° NNE
USA 186 0.7 20:35:00 10° SSE 20:37:13 70° ENE 20:39:26 10° N
In-Cosmos 22 4.5 20:32:24 10° NNW 20:37:45 69° W 20:42:59 10° S
Cosmos 1184 Rocket 4.1 20:36:24 10° N 20:39:18 25° ENE 20:41:45 12° ESE
Cosmos 1674 2.7 20:37:52 10° N 20:41:38 60° ENE 20:45:23 10° SSE
Timation 2 Rocket 4.1 20:36:23 10° NW 20:42:53 86° SW 20:49:03 10° SSE
Cosmos 2251 Rocket 3.9 20:42:16 10° NNW 20:47:26 48° NE 20:52:07 12° SE
Cosmos 1743 Rocket 4.1 20:43:51 10° N 20:48:04 41° ENE 20:52:16 10° SE
Cosmos 1844 Rocket 3.0 20:43:22 10° SW 20:49:01 72° NW 20:54:40 10° NNE
Cosmos 2227 Rocket 4.4 20:46:04 10° NW 20:49:32 16° N 20:52:59 10° NE
Cosmos 1500 Rocket 4.3 20:45:55 10° N 20:49:52 33° ENE 20:53:08 13° SE
Cosmos 1269 Rocket 4.3 20:46:31 10° NNW 20:51:48 70° WSW 20:57:03 10° SSE
USA 215 4.4 20:48:43 10° E 20:53:16 20° SE 20:57:48 10° S
Cosmos 1833 Rocket 2.9 20:47:48 10° NW 20:53:26 72° WSW 20:59:01 10° SSE
SAR-Lupe-4 3.8 20:51:05 10° S 20:54:39 72° WSW 20:58:16 10° NNW
YAOGAN 6 3.4 20:53:05 14° SE 20:55:47 34° ENE 20:59:13 10° N
Cosmos 1356 Rocket 4.1 20:52:36 10° N 20:56:29 36° ENE 20:59:19 16° SE
H-2A R/B 4.0 20:55:08 11° ENE 20:56:54 13° NE 20:58:54 10° NNE
CZ-2D R/B 4.3 20:56:53 10° S 21:00:39 49° W 21:04:28 10° NNW
ALOS 4.2 20:56:42 10° SSW 21:00:52 32° W 21:05:05 10° NNW
Meteor 1-29 3.5 20:57:46 10° NNE 21:01:02 37° E 21:04:18 10° SSE
Cosmos 1459 Rocket 4.2 20:58:31 10° SSE 21:04:26 47° E 21:10:17 10° NNE
Cosmos 2278 Rocket 2.1 20:59:57 10° SSW 21:05:38 79° ESE 21:11:21 10° NE
Cosmos 1805 3.2 21:01:54 10° S 21:05:49 88° WNW 21:09:46 10° NNE
COSMOS 2487 3.5 21:03:27 10° NW 21:06:55 45° WSW 21:10:20 10° S
Cosmos 1408 Rocket 3.8 21:05:12 10° NNW 21:09:42 75° W 21:14:09 10° S
Cosmos 2173 Rocket 4.2 21:03:59 10° SSE 21:09:54 50° E 21:15:57 10° NNE
Cosmos 1626 3.6 21:11:47 10° NNE 21:14:40 21° ENE 21:15:31 19° E
Cosmos 2098 Rocket 4.4 21:07:50 10° S 21:15:19 84° E 21:22:51 10° NNE
Cosmos 372 Rocket 4.1 21:10:46 10° S 21:15:41 48° ESE 21:20:39 10° NE
Cosmos 2263 Rocket 4.4 21:12:17 10° W 21:16:50 24° NNW 21:21:22 10° NNE
ATLAS 5 CENTAUR R/B 2.7 21:13:38 10° S 21:17:36 26° ESE 21:21:53 10° ENE
Meteor 1-4 Rocket 2.5 21:16:44 10° SSW 21:20:12 81° WNW 21:23:44 10° NNE
Cosmos 1340 Rocket 2.9 21:17:08 10° NNW 21:21:12 78° W 21:25:08 10° S
Cosmos 2297 3.8 21:15:44 10° S 21:21:18 56° ESE 21:26:56 10° NE
Cosmos 1470 2.8 21:17:42 10° S 21:21:36 57° E 21:25:32 10° NNE
Meteor 1-11 4.3 21:20:01 10° N 21:25:36 61° ENE 21:29:38 19° SSE
Cosmos 2344 3.8 21:18:37 10° SW 21:26:25 84° SE 21:36:01 10° NE
Cosmos 2058 3.4 21:23:11 10° N 21:27:12 42° ENE 21:28:53 28° ESE
Cosmos 1867 3.8 21:22:04 10° SSW 21:27:15 46° SE 21:32:29 10° NE
Cosmos 1544 4.0 21:24:40 10° SSW 21:28:15 51° WNW 21:31:54 10° N
Cosmos 2082 Rocket 3.4 21:23:20 10° NW 21:28:38 40° WSW 21:33:52 10° S
Cosmos 1842 Rocket 4.1 21:27:03 22° SE 21:29:18 38° E 21:33:23 10° NNE
USA 267 3.3 21:26:09 21° ESE 21:30:51 82° SSW 21:37:26 10° WNW
Cosmos 2151 3.1 21:27:02 10° N 21:31:17 56° ENE 21:33:22 27° SE
Cosmos 1733 3.1 21:27:50 10° S 21:31:42 69° E 21:35:35 10° NNE
Cosmos 494 Rocket 3.9 21:28:29 10° NNW 21:33:39 88° WSW 21:37:09 21° SSE
BREEZE-M DEB (TANK) 3.8 21:33:13 10° WSW 21:35:05 20° S 21:35:12 20° S
CZ-3B DEB 2.1 21:28:13 10° WSW 21:36:28 64° SSE 21:38:51 26° E
CZ-4B DEB 4.5 21:35:04 10° SSW 21:37:52 31° W 21:40:43 10° NNW
Cosmos 389 Rocket 3.8 21:40:26 25° ENE 21:40:26 25° ENE 21:42:35 10° NNE
Helios 1B rocket 2.6 21:35:32 10° NNE 21:39:42 76° WNW 21:43:49 10° SSW
Cosmos 2016 Rocket 4.0 21:35:29 10° S 21:41:34 60° E 21:47:37 10° NNE
YAOGAN 11 4.1 21:40:01 26° SSE 21:42:36 74° ENE 21:47:09 10° NNW
Lacrosse 5 1.8 21:38:56 10° SW 21:43:59 70° SSE 21:47:42 18° ENE
Meteor 1-16 Rocket 4.5 21:38:44 12° SSE 21:44:05 52° E 21:49:51 10° NNE
Envisat 3.9 21:43:51 10° S 21:48:45 47° W 21:53:41 10° NNW
MetOp-A 4.1 21:46:00 23° SSE 21:49:26 82° ENE 21:54:50 10° NNW
Cosmos 1725 Rocket 4.1 21:45:20 19° SSE 21:49:36 50° E 21:55:34 10° NNE
SL-14 R/B 3.2 21:45:48 10° NNW 21:49:41 79° W 21:51:36 28° S
ARGOS 3.2 21:47:02 28° SE 21:49:49 64° ENE 21:55:08 10° NNW
SPOT 5 3.1 21:47:19 27° SSE 21:50:19 71° ENE 21:55:36 10° NNW
Cosmos 1328 4.0 21:47:58 10° NNW 21:51:57 68° W 21:54:16 23° S
H-2A R/B 2.5 21:50:58 31° ESE 21:53:02 47° ENE 21:58:04 10° N
Geosat 4.0 21:49:44 10° NNE 21:54:48 85° NW 21:59:51 10° SW
GP-B 4.5 21:52:42 10° SSW 21:56:53 39° W 22:01:05 10° NNW
Cosmos 2100 Rocket 4.1 21:51:01 10° SSW 21:57:22 81° WNW 22:03:49 10° N
Lacrosse 4 Rocket 3.4 21:53:51 10° W 21:57:23 28° NNW 22:00:59 10° NNE
Coronas F rocket 3.1 21:55:13 10° N 21:56:06 20° N 21:56:06 20° N
Cosmos 1953 3.9 21:53:39 10° SW 21:57:26 37° WNW 22:01:15 10° N
SWAS 4.3 21:53:19 10° SSW 21:57:34 66° ESE 22:01:54 10° NE
Tsikada Rocket 3.9 21:52:34 10° N 21:58:48 83° ENE 22:02:51 24° SSE
Cosmos 1125 Rocket 3.8 21:53:44 10° SW 21:58:56 71° WNW 22:04:12 10° NNE
Cosmos 1939 Rocket 4.4 21:58:06 10° SSW 22:01:55 35° W 22:05:47 10° NNW
SL-08 R/B 4.5 21:56:27 10° S 22:02:42 71° E 22:09:07 10° NNE
Sich 1 3.7 21:59:37 10° N 22:03:46 38° ENE 22:04:10 37° E
Cosmos 1666 Rocket 4.1 21:59:50 10° N 22:03:57 39° ENE 22:04:17 38° E
ERS-1 Rocket 3.6 22:03:22 16° S 22:07:15 55° W 22:12:13 10° NNW
Cosmos 1271 Rocket 3.4 22:03:46 10° SSW 22:07:44 56° WNW 22:11:44 10° N
Cosmos 1633 Rocket 3.7 22:03:52 10° N 22:08:01 37° ENE 22:08:17 37° ENE
Terra 2.5 22:08:08 35° E 22:08:55 38° ENE 22:13:20 10° N
Cosmos 2297 Rocket 4.2 22:05:10 10° NNW 22:09:12 19° NNE 22:13:06 10° ENE
ATLAS CENTAUR R/B 3.3 22:10:32 10° WNW 22:10:59 16° WNW 22:10:59 16° WNW
Cosmos-2242 4.0 22:09:01 10° SSW 22:13:08 46° WNW 22:17:16 10° N
Lacrosse 5 rocket 3.4 22:11:55 10° W 22:14:14 15° SW 22:15:15 14° SSW
Cosmos 2346 Rocket 4.4 22:09:02 10° N 22:15:15 72° ENE 22:17:53 37° SSE
SL-19 R/B 4.3 22:15:12 62° SE 22:15:49 78° ENE 22:20:21 10° NNW
Cosmos 1802 Rocket 4.2 22:12:14 10° SSW 22:18:22 72° WNW 22:24:36 10° N
Cosmos 1833 4.3 22:14:29 10° NNW 22:20:04 61° NE 22:21:42 44° ESE
Cosmos 1703 3.2 22:17:51 10° NNW 22:21:50 85° WSW 22:22:13 71° S
Nimbus 7 Rocket 4.4 22:21:02 10° NNE 22:26:50 55° ESE 22:28:16 44° SSE
Cosmos 2369 Rocket 3.2 22:29:46 29° ENE 22:29:46 29° ENE 22:33:11 10° NE
YAOGAN 6 4.5 22:27:31 18° SW 22:29:24 28° W 22:32:40 10° NNW
Cosmos 2221 2.6 22:30:44 59° ENE 22:30:44 59° ENE 22:34:46 10° NNE
Cosmos 1805 Rocket 3.5 22:26:54 10° NNW 22:31:21 89° W 22:31:53 69° S
H-2A R/B 1.8 22:32:15 72° ENE 22:32:15 72° ENE 22:36:21 10° NNW
SL-08 RB Rocket 3.8 22:32:41 50° S 22:33:49 74° WSW 22:38:31 10° NNW
Cosmos 2227 Rocket 3.8 22:31:01 10° NNW 22:35:41 25° NNE 22:38:10 19° ENE
SPOT 1/Viking Rocket 3.6 22:35:10 45° S 22:36:48 75° WSW 22:42:04 10° NNW
USA 215 3.3 22:30:59 10° ENE 22:37:23 53° SE 22:43:44 10° SW
IGS 5A 3.8 22:38:53 52° NE 22:38:53 52° NE 22:42:32 10° N
MOS 1-B Rocket 4.4 22:36:30 33° SSE 22:40:25 83° WSW 22:47:10 10° NNW
Cosmos 1470 Rocket 4.3 22:38:28 10° N 22:42:15 40° NE 22:42:15 40° NE
Cosmos 407 Rocket 3.7 22:44:22 10° NNW 22:49:38 55° NE 22:50:07 53° ENE
Cosmos 2278 Rocket 4.0 22:45:15 10° W 22:50:19 32° NW 22:55:24 10° NNE
Cosmos 1626 2.9 22:46:41 10° NNW 22:50:12 47° W 22:50:12 47° W
Cosmos 2233 Rocket 3.8 22:54:17 45° S 22:56:22 88° E 23:02:33 10° NNE
Nadezhda 4 Rocket 4.3 22:53:29 10° N 22:59:24 47° ENE 22:59:58 46° E
Cosmos 1943 Rocket 3.7 23:03:29 23° ENE 23:03:29 23° ENE 23:05:53 10° NE
ATLAS 5 CENTAUR R/B 1.9 22:56:48 10° SW 23:01:44 81° NW 23:07:14 10° NE
Cosmos 1867 4.2 23:05:29 10° WSW 23:10:51 55° NW 23:16:17 10° NE
DMSP B5D2-2 4.3 23:06:20 10° NNE 23:10:49 57° ENE 23:10:49 57° ENE
CZ-4C R/B 3.8 23:15:58 23° ENE 23:15:58 23° ENE 23:18:28 10° NE
SL-19 R/B 4.4 23:07:18 10° NNE 23:13:29 65° ESE 23:13:48 64° ESE
Cosmos 2219 3.2 23:08:36 10° NNW 23:14:15 66° NE 23:14:35 64° ENE
Cosmos 389 Rocket 4.4 23:14:24 28° WNW 23:14:24 28° WNW 23:17:30 10° N
USA 267 3.8 23:13:29 38° SSW 23:14:25 40° SW 23:20:32 10° WNW
SL-24 R/B - RUBIN 2 4.1 23:15:21 10° NW 23:21:40 78° SW 23:21:54 77° SSW
Cosmos 1140 Rocket 4.0 23:21:20 10° NNW 23:26:16 51° NE 23:26:16 51° NE
Lacrosse 5 2.0 23:21:59 10° W 23:26:56 71° NNW 23:26:56 71° NNW
Cosmos 676 Rocket 4.1 23:26:10 10° NNW 23:31:12 73° NNE 23:31:12 73° NNE
H-2A R/B 3.1 23:31:35 34° WSW 23:32:34 37° W 23:37:29 10° NNW
Lacrosse 4 Rocket 4.4 23:35:05 10° NW 23:37:23 14° N 23:39:43 10° NNE
Cosmos 2228 Rocket 4.2 23:41:03 42° NNE 23:41:03 42° NNE 23:44:06 10° NNE
Cosmos 1891 Rocket 4.3 23:40:06 73° ENE 23:40:06 73° ENE 23:45:52 10° NNE
Cosmos 1464 Rocket 3.8 23:41:27 83° S 23:41:44 89° ESE 23:48:04 10° NNE
Spot 4 4.3 23:44:04 58° WNW 23:44:04 58° WNW 23:48:13 10° NNW
CZ-4B R/B 4.1 23:39:08 10° NNE 23:42:50 49° NNE 23:42:50 49° NNE
In-Cosmos 22 Rocket 4.2 23:38:49 10° NNW 23:44:18 80° NW 23:44:18 80° NW
Terra 2.9 23:47:01 39° W 23:47:01 39° W 23:51:10 10° NNW
Cosmos 1190 Rocket 4.5 23:42:35 10° NNW 23:47:17 55° W 23:47:17 55° W
CZ-3B DEB 3.3 23:43:04 10° W 23:45:52 25° W 23:45:52 25° W
ALOS 2 4.1 23:52:07 32° NNE 23:52:07 32° NNE 23:54:52 10° N
